M I D A S
Marine Information and Data Acquisition System
Tripno 2176 of the Zeeleeuw from 2011-07-07 06:17:24 to 2011-07-07 14:18:31
Back to CruiseResearch ActivitiesStationsMapUnderway DataData graphs

EquipmentUnitsComment
TimeDGPSUTC
LatitudeDGPSDM.mWGS84
LongitudeDGPSDM.mWGS84
TemperatureSBE03/SBE38deg celciusITS90
ConductivitySBE21S/mITS90
SalinitySBE21 Practical Salinity Units
ChlorophylAChelsea fluorimeterg/lCalibrated in Aceton
Missing or incorrect values are displayed as -999
Sea surface data collected by the RV Zeeleeuw from 2011-07-07 06:18:47 to 2011-07-07 14:28:43
Time Latitude Longitude Temperature Conductivity Salinity ChlorophylA
2011-07-07 06:19:53 51°13.654 2°55.941 22.093 0.015568 0.084365 -3.020363
2011-07-07 06:20:53 51°13.681 2°55.827 22.0795 0.015568 0.08437 -3.020363
2011-07-07 06:21:51 51°13.688 2°55.752 22.0895 0.015568 0.084378 -3.020363
2011-07-07 06:22:50 51°13.689 2°55.725 22.1099 0.015568 0.084384 -3.020363
2011-07-07 06:23:50 51°13.714 2°55.725 22.1076 0.015568 0.08439 -3.020363
2011-07-07 06:24:49 51°13.749 2°55.698 22.0675 0.015568 0.084396 -3.020363
2011-07-07 06:25:49 51°13.795 2°55.659 22.0737 0.015568 0.0844 -3.020363
2011-07-07 06:26:49 51°13.849 2°55.632 22.0693 0.015568 0.084405 -3.020363
2011-07-07 06:27:49 51°13.891 2°55.632 22.0865 0.015568 0.08441 -3.020363
2011-07-07 06:28:49 51°13.924 2°55.641 22.0954 0.015568 0.084416 -3.020363
2011-07-07 06:29:50 51°13.949 2°55.646 22.0999 0.015568 0.084421 -3.020363
2011-07-07 06:30:49 51°13.951 2°55.646 22.0896 0.015466 0.083891 -3.020363
2011-07-07 06:31:52 51°13.939 2°55.646 22.1095 0.015466 0.083894 -3.020363
2011-07-07 06:32:51 51°13.932 2°55.648 22.1097 0.015466 0.083896 -3.020363
2011-07-07 06:33:49 51°13.93 2°55.65 22.1241 0.015466 0.083897 -3.020363
2011-07-07 06:34:49 51°13.939 2°55.644 22.129 0.015466 0.083897 -3.020363
2011-07-07 06:35:49 51°14.021 2°55.559 22.0641 0.015466 0.083896 -3.020363
2011-07-07 06:36:50 51°14.154 2°55.415 22.0914 0.015466 0.083895 -3.020363
2011-07-07 06:37:50 51°14.29 2°55.28 22.0987 0.015466 0.083894 -3.020363
2011-07-07 06:38:50 51°14.434 2°55.137 22.1235 0.015466 0.083895 -3.020363
2011-07-07 06:39:49 51°14.585 2°54.986 22.0768 0.015466 0.083897 -3.020363
2011-07-07 06:40:49 51°14.743 2°54.823 22.1144 0.015466 0.083899 -3.020363
2011-07-07 06:41:49 51°14.911 2°54.642 22.0424 0.015466 0.083902 -3.020363
2011-07-07 06:42:49 51°15.113 2°54.519 22.0744 0.015466 0.083906 -3.020363
2011-07-07 06:43:49 51°15.335 2°54.494 22.0972 0.015466 0.083911 -3.020363
2011-07-07 06:44:49 51°15.556 2°54.465 22.0219 0.015466 0.083916 -3.020363
2011-07-07 06:45:49 51°15.77 2°54.544 22.07 0.015466 0.083919 -3.020363
2011-07-07 06:46:49 51°15.946 2°54.757 22.0859 0.015466 0.083924 -3.020363
2011-07-07 06:47:50 51°16.094 2°55.033 22.0896 0.015466 0.083929 -3.020363
2011-07-07 06:48:49 51°16.238 2°55.299 22.0855 0.015466 0.083934 -3.020363
2011-07-07 06:49:50 51°16.385 2°55.576 22.0797 0.015466 0.083939 -3.020363
2011-07-07 06:50:50 51°16.523 2°55.854 22.0844 0.015466 0.083944 -3.020363
2011-07-07 06:51:49 51°16.663 2°56.123 22.085 0.015466 0.083949 -3.020363
2011-07-07 06:52:49 51°16.803 2°56.401 22.1052 0.015466 0.083955 -3.020363
2011-07-07 06:53:49 51°16.951 2°56.669 22.1158 0.015466 0.08396 -3.020363
2011-07-07 06:54:49 51°17.089 2°56.95 22.1201 0.015466 0.083965 -3.020363
2011-07-07 06:55:50 51°17.239 2°57.224 22.1256 0.015466 0.08397 -3.020363
2011-07-07 06:56:50 51°17.373 2°57.511 22.1248 0.015466 0.083975 -3.020363
2011-07-07 06:57:49 51°17.517 2°57.776 22.1148 0.015466 0.08398 -3.020363
2011-07-07 06:58:49 51°17.655 2°58.053 22.1308 0.015466 0.083985 -3.020363
2011-07-07 06:59:49 51°17.809 2°58.31 22.1299 0.015466 0.083988 -3.020363
2011-07-07 07:00:50 51°17.945 2°58.597 22.1531 0.015466 0.083993 -3.020363
2011-07-07 07:01:49 51°18.094 2°58.853 22.1573 0.015466 0.083997 -3.020363
2011-07-07 07:02:49 51°18.246 2°59.113 22.1429 0.015466 0.084002 -3.020363
2011-07-07 07:03:50 51°18.379 2°59.401 22.1702 0.015466 0.084005 -3.020363
2011-07-07 07:04:50 51°18.523 2°59.668 22.1486 0.015466 0.08401 -3.020363
2011-07-07 07:05:50 51°18.661 2°59.945 22.1629 0.015466 0.084014 -3.020363
2011-07-07 07:06:49 51°18.824 3°0.137 22.2341 0.015466 0.084019 -3.020363
2011-07-07 07:07:49 51°18.959 2°59.952 22.2327 0.015466 0.084021 -3.020363
2011-07-07 07:08:49 51°18.87 2°59.712 22.1513 0.015466 0.084023 -3.020363
2011-07-07 07:09:49 51°18.768 2°59.446 22.1928 0.015466 0.084028 -3.020363
2011-07-07 07:10:49 51°18.663 2°59.185 22.1906 0.015466 0.084033 -3.020363
2011-07-07 07:11:50 51°18.548 2°58.928 22.2021 0.015466 0.084036 -3.020363
2011-07-07 07:12:50 51°18.449 2°58.659 22.2129 0.015466 0.084041 -3.020363
2011-07-07 07:13:49 51°18.347 2°58.399 22.2099 0.015466 0.084047 -3.020363
2011-07-07 07:14:49 51°18.227 2°58.153 22.1939 0.015466 0.084051 -3.020363
2011-07-07 07:15:49 51°18.123 2°57.888 22.2256 0.015466 0.084057 -3.020363
2011-07-07 07:16:50 51°18.004 2°57.637 22.2252 0.015466 0.084061 -3.020363
2011-07-07 07:17:50 51°17.897 2°57.377 22.2413 0.015466 0.084066 -3.020363
2011-07-07 07:18:50 51°17.782 2°57.122 22.2487 0.015466 0.084071 -3.020363
2011-07-07 07:19:49 51°17.668 2°56.869 22.2534 0.015466 0.084077 -3.020363
2011-07-07 07:20:49 51°17.538 2°56.628 22.2616 0.015466 0.084081 -3.020363
2011-07-07 07:21:50 51°17.422 2°56.364 22.2717 0.015466 0.084087 -3.020363
2011-07-07 07:22:50 51°17.294 2°56.12 22.2682 0.015466 0.084092 -3.020363
2011-07-07 07:23:50 51°17.179 2°55.855 22.2952 0.015466 0.084098 -3.020363
2011-07-07 07:24:49 51°17.049 2°55.613 22.2893 0.015466 0.084103 -3.020363
2011-07-07 07:25:50 51°16.93 2°55.342 22.3082 0.015466 0.084108 -3.020363
2011-07-07 07:26:49 51°16.803 2°55.098 22.3088 0.015466 0.084113 -3.020363
2011-07-07 07:27:50 51°16.682 2°54.831 22.3186 0.015466 0.084119 -3.020363
2011-07-07 07:28:49 51°16.555 2°54.585 22.3249 0.015466 0.084124 -3.020363
2011-07-07 07:29:49 51°16.428 2°54.332 22.3363 0.015466 0.084129 -3.020363
2011-07-07 07:30:49 51°16.304 2°54.075 22.3433 0.015466 0.084134 -3.020363
2011-07-07 07:31:50 51°16.178 2°53.811 22.3527 0.015466 0.08414 -3.020363
2011-07-07 07:32:50 51°16.053 2°53.554 22.3685 0.015466 0.084145 -3.020363
2011-07-07 07:33:49 51°15.932 2°53.297 22.3756 0.015466 0.084151 -3.020363
2011-07-07 07:34:49 51°15.81 2°53.034 22.3778 0.015466 0.084156 -3.020363
2011-07-07 07:35:49 51°15.678 2°52.781 22.3719 0.015466 0.084161 -3.020363
2011-07-07 07:36:50 51°15.565 2°52.498 22.4093 0.015466 0.084166 -3.020363
2011-07-07 07:37:49 51°15.453 2°52.229 22.4003 0.015466 0.084171 -3.020363
2011-07-07 07:38:50 51°15.349 2°51.937 22.4301 0.015466 0.084176 -3.020363
2011-07-07 07:39:49 51°15.241 2°51.661 22.4254 0.015466 0.08418 -3.020363
2011-07-07 07:40:49 51°15.127 2°51.384 22.4487 0.015466 0.084185 -3.020363
2011-07-07 07:41:49 51°15.005 2°51.117 22.4352 0.015466 0.08419 -3.020363
2011-07-07 07:42:50 51°14.881 2°50.843 22.4525 0.015363 0.083658 -3.020363
2011-07-07 07:43:50 51°14.76 2°50.576 22.4552 0.015363 0.083661 -3.020363
2011-07-07 07:44:49 51°14.634 2°50.318 22.4693 0.015363 0.083665 -3.020363
2011-07-07 07:45:49 51°14.508 2°50.055 22.4828 0.015363 0.083669 -3.020363
2011-07-07 07:46:49 51°14.385 2°49.787 22.4865 0.015363 0.083674 -3.020363
2011-07-07 07:47:49 51°14.261 2°49.522 22.4878 0.015363 0.083677 -3.020363
2011-07-07 07:48:49 51°14.129 2°49.265 22.5045 0.015363 0.083682 -3.020363
2011-07-07 07:49:49 51°14.037 2°48.972 22.5056 0.015363 0.083685 -3.020363
2011-07-07 07:50:49 51°14.067 2°48.645 22.4657 0.015363 0.083688 -3.020363
2011-07-07 07:51:49 51°14.239 2°48.577 22.502 0.015363 0.083691 -3.020363
2011-07-07 07:52:50 51°14.333 2°48.844 22.6212 0.015363 0.083703 -3.020363
2011-07-07 07:53:49 51°14.504 2°49.007 22.5587 0.015363 0.083706 -3.020363
2011-07-07 07:54:49 51°14.67 2°49.209 22.5573 0.015363 0.083712 -3.020363
2011-07-07 07:55:49 51°14.841 2°49.404 22.5822 0.015363 0.083715 -3.020363
2011-07-07 07:56:49 51°15.041 2°49.496 22.5889 0.015363 0.083718 -3.020363
2011-07-07 07:57:49 51°15.248 2°49.564 22.5851 0.015363 0.08372 -3.020363
2011-07-07 07:58:49 51°15.455 2°49.636 22.5904 0.015363 0.083722 -3.020363
2011-07-07 07:59:50 51°15.661 2°49.729 22.6251 0.015363 0.083723 -3.020363
2011-07-07 08:00:49 51°15.862 2°49.809 22.6274 0.015363 0.083723 -3.020363
2011-07-07 08:01:49 51°16.068 2°49.879 22.6412 0.015363 0.083723 -3.020363
2011-07-07 08:02:49 51°16.272 2°49.959 22.6448 0.015363 0.083724 -3.020363
2011-07-07 08:03:49 51°16.48 2°50.02 22.6543 0.015363 0.083722 -3.020363
2011-07-07 08:04:49 51°16.685 2°50.104 22.6769 0.015363 0.083723 -3.020363
2011-07-07 08:05:49 51°16.894 2°50.165 22.6715 0.015363 0.083722 -3.020363
2011-07-07 08:06:49 51°17.101 2°50.227 22.7003 0.015363 0.08372 -3.020363
2011-07-07 08:07:49 51°17.307 2°50.299 22.6966 0.015363 0.083719 -3.020363
2011-07-07 08:08:49 51°17.513 2°50.381 22.7123 0.015363 0.083718 -3.020363
2011-07-07 08:09:49 51°17.722 2°50.458 22.7287 0.015363 0.083717 -3.020363
2011-07-07 08:10:49 51°17.932 2°50.512 22.7339 0.015363 0.083715 -3.020363
2011-07-07 08:11:49 51°18.141 2°50.577 22.7269 0.015363 0.083713 -3.020363
2011-07-07 08:12:49 51°18.349 2°50.652 22.7612 0.015363 0.083712 -3.020363
2011-07-07 08:13:49 51°18.56 2°50.708 22.7675 0.015363 0.083709 -3.020363
2011-07-07 08:14:50 51°18.771 2°50.782 22.761 0.015363 0.083707 -3.020363
2011-07-07 08:15:49 51°18.975 2°50.856 22.7835 0.015363 0.083706 -3.020363
2011-07-07 08:16:49 51°19.187 2°50.909 22.7924 0.015363 0.083703 -3.020363
2011-07-07 08:17:49 51°19.396 2°50.976 22.8064 0.015363 0.083701 -3.020363
2011-07-07 08:18:49 51°19.604 2°51.045 22.8193 0.015363 0.083697 -3.020363
2011-07-07 08:19:49 51°19.813 2°51.097 22.8267 0.015363 0.083693 -3.020363
2011-07-07 08:20:49 51°20.022 2°51.167 22.8522 0.015363 0.083691 -3.020363
2011-07-07 08:21:49 51°20.232 2°51.222 22.847 0.015363 0.083688 -3.020363
2011-07-07 08:22:49 51°20.442 2°51.275 22.8519 0.015363 0.083685 -3.020363
2011-07-07 08:23:49 51°20.648 2°51.344 22.8632 0.015363 0.083681 -3.020363
2011-07-07 08:24:49 51°20.853 2°51.41 22.8984 0.015363 0.083678 -3.020363
2011-07-07 08:25:49 51°21.063 2°51.448 22.8826 0.015363 0.083676 -3.020363
2011-07-07 08:26:49 51°21.273 2°51.504 22.9072 0.015363 0.083674 -3.020363
2011-07-07 08:27:49 51°21.485 2°51.556 22.9304 0.015363 0.083671 -3.020363
2011-07-07 08:28:49 51°21.697 2°51.618 22.9291 0.015363 0.083669 -3.020363
2011-07-07 08:29:49 51°21.907 2°51.685 22.9507 0.015363 0.083666 -3.020363
2011-07-07 08:30:49 51°22.122 2°51.731 22.9613 0.015363 0.083664 -3.020363
2011-07-07 08:31:49 51°22.332 2°51.791 22.9657 0.015363 0.083661 -3.020363
2011-07-07 08:32:50 51°22.548 2°51.856 22.9828 0.015363 0.083659 -3.020363
2011-07-07 08:33:49 51°22.759 2°51.911 22.9861 0.015363 0.083656 -3.020363
2011-07-07 08:34:49 51°22.975 2°51.967 23.0005 0.015363 0.083653 -3.020363
2011-07-07 08:35:49 51°23.189 2°52.041 23.0312 0.015363 0.08365 -3.020363
2011-07-07 08:36:49 51°23.405 2°52.107 23.0266 0.015363 0.083648 -3.020363
2011-07-07 08:37:49 51°23.619 2°52.163 23.0432 0.015363 0.083645 -3.020363
2011-07-07 08:38:49 51°23.831 2°52.226 23.0584 0.015363 0.083643 -3.020363
2011-07-07 08:39:49 51°24.044 2°52.273 23.0401 0.015363 0.083639 -3.020363
2011-07-07 08:40:49 51°24.256 2°52.331 23.0756 0.015363 0.083638 -3.020363
2011-07-07 08:41:50 51°24.473 2°52.388 23.0875 0.015363 0.083634 -3.020363
2011-07-07 08:42:49 51°24.681 2°52.45 23.1012 0.015363 0.083633 -3.020363
2011-07-07 08:43:49 51°24.893 2°52.497 23.0985 0.015363 0.083631 -3.020363
2011-07-07 08:44:49 51°25.105 2°52.536 23.1143 0.015363 0.083629 -3.020363
2011-07-07 08:45:49 51°25.313 2°52.599 23.1174 0.015363 0.083627 -3.020363
2011-07-07 08:46:49 51°25.522 2°52.654 23.1133 0.015363 0.083624 -3.020363
2011-07-07 08:47:49 51°25.719 2°52.777 23.1271 0.015363 0.083622 -3.020363
2011-07-07 08:48:49 51°25.848 2°53.026 23.1419 0.015363 0.083619 -3.020363
2011-07-07 08:49:49 51°25.958 2°53.291 23.1739 0.015363 0.083618 -3.020363
2011-07-07 08:50:49 51°26.048 2°53.392 23.2155 0.01526 0.083079 -3.020363
2011-07-07 08:51:49 51°26.115 2°53.372 23.1882 0.01526 0.083074 -3.020363
2011-07-07 08:52:49 51°26.153 2°53.334 23.2103 0.01526 0.083073 -3.020363
2011-07-07 08:53:49 51°26.172 2°53.31 23.2158 0.01526 0.083068 -3.020363
2011-07-07 08:54:49 51°26.189 2°53.297 23.2482 0.01526 0.083067 -3.020363
2011-07-07 08:55:49 51°26.202 2°53.293 23.2363 0.01526 0.083066 -3.020363
2011-07-07 08:56:49 51°26.214 2°53.29 23.2054 0.01526 0.08304 -3.020363
2011-07-07 08:57:49 51°26.226 2°53.287 23.2213 0.01526 0.083059 -3.020363
2011-07-07 08:58:49 51°26.238 2°53.283 23.242 0.01526 0.083064 -3.020363
2011-07-07 08:59:49 51°26.25 2°53.279 23.2476 0.01526 0.083065 -3.020363
2011-07-07 09:00:49 51°26.261 2°53.274 23.2737 0.01526 0.083066 -3.020363
2011-07-07 09:01:49 51°26.271 2°53.274 23.2872 0.01526 0.083065 -3.020363
2011-07-07 09:02:49 51°26.281 2°53.276 23.3018 0.01526 0.083066 -3.020363
2011-07-07 09:03:49 51°26.288 2°53.279 23.3052 0.01526 0.083066 -3.020363
2011-07-07 09:04:49 51°26.295 2°53.28 23.3313 0.01526 0.083068 -3.020363
2011-07-07 09:05:49 51°26.302 2°53.28 23.3401 0.01526 0.08307 -3.020363
2011-07-07 09:06:49 51°26.31 2°53.279 23.3568 0.01526 0.08307 -3.020363
2011-07-07 09:07:49 51°26.319 2°53.278 23.3762 0.01526 0.08307 -3.020363
2011-07-07 09:08:49 51°26.327 2°53.275 23.3989 0.01526 0.08307 -3.020363
2011-07-07 09:09:49 51°26.337 2°53.27 23.4117 0.01526 0.08307 -3.020363
2011-07-07 09:10:49 51°26.348 2°53.262 23.4302 0.01526 0.08307 -3.020363
2011-07-07 09:11:49 51°26.36 2°53.252 23.4531 0.01526 0.083068 -3.020363
2011-07-07 09:12:49 51°26.372 2°53.243 23.4644 0.01526 0.083066 -3.020363
2011-07-07 09:13:49 51°26.384 2°53.233 23.4854 0.01526 0.083065 -3.020363
2011-07-07 09:14:49 51°26.396 2°53.223 23.4935 0.01526 0.083065 -3.020363
2011-07-07 09:15:49 51°26.408 2°53.214 23.5216 0.01526 0.083064 -3.020363
2011-07-07 09:16:49 51°26.42 2°53.207 23.5427 0.01526 0.083064 -3.020363
2011-07-07 09:17:49 51°26.432 2°53.199 23.5516 0.01526 0.083062 -3.020363
2011-07-07 09:18:49 51°26.445 2°53.191 23.5733 0.01526 0.083062 -3.020363
2011-07-07 09:19:49 51°26.457 2°53.181 23.5967 0.01526 0.083062 -3.020363
2011-07-07 09:20:49 51°26.469 2°53.171 23.6171 0.01526 0.083062 -3.020363
2011-07-07 09:21:49 51°26.482 2°53.163 23.6327 0.01526 0.083062 -3.020363
2011-07-07 09:22:49 51°26.493 2°53.155 23.6406 0.01526 0.083062 -3.020363
2011-07-07 09:23:49 51°26.505 2°53.148 23.6664 0.01526 0.083064 -3.020363
2011-07-07 09:24:49 51°26.517 2°53.138 23.6876 0.01526 0.083064 -3.020363
2011-07-07 09:25:49 51°26.53 2°53.127 23.7051 0.01526 0.083064 -3.020363
2011-07-07 09:26:49 51°26.542 2°53.114 23.7137 0.01526 0.083062 -3.020363
2011-07-07 09:27:50 51°26.57 2°53.085 23.7361 0.01526 0.083061 -3.020363
2011-07-07 09:28:49 51°26.615 2°53.075 23.7582 0.01526 0.083061 -3.020363
2011-07-07 09:29:49 51°26.656 2°53.091 23.7762 0.01526 0.08306 -3.020363
2011-07-07 09:30:49 51°26.693 2°53.124 23.7884 0.01526 0.083059 -3.020363
2011-07-07 09:31:49 51°26.724 2°53.167 23.8125 0.01526 0.083056 -3.020363
2011-07-07 09:32:49 51°26.749 2°53.215 23.8276 0.01526 0.083051 -3.020363
2011-07-07 09:33:49 51°26.765 2°53.264 23.8408 0.01526 0.083045 -3.020363
2011-07-07 09:34:49 51°26.773 2°53.31 23.8643 0.01526 0.083038 -3.020363
2011-07-07 09:35:49 51°26.773 2°53.352 23.8818 0.01526 0.083029 -3.020363
2011-07-07 09:36:49 51°26.77 2°53.392 23.9009 0.01526 0.083022 -3.020363
2011-07-07 09:37:49 51°26.763 2°53.429 23.9212 0.01526 0.083014 -3.020363
2011-07-07 09:38:49 51°26.755 2°53.465 23.9371 0.01526 0.083006 -3.020363
2011-07-07 09:39:49 51°26.745 2°53.499 23.955 0.01526 0.082998 -3.020363
2011-07-07 09:40:49 51°26.732 2°53.532 23.9732 0.015363 0.083528 -3.020363
2011-07-07 09:41:49 51°26.72 2°53.562 23.9944 0.015363 0.083523 -3.020363
2011-07-07 09:42:50 51°26.705 2°53.591 24.0132 0.015363 0.083518 -3.020363
2011-07-07 09:43:49 51°26.69 2°53.616 24.0285 0.015363 0.083513 -3.020363
2011-07-07 09:44:49 51°26.672 2°53.639 24.0472 0.015363 0.083508 -3.020363
2011-07-07 09:45:49 51°26.653 2°53.658 24.0661 0.015363 0.083503 -3.020363
2011-07-07 09:46:49 51°26.631 2°53.673 24.0832 0.015363 0.083499 -3.020363
2011-07-07 09:47:50 51°26.608 2°53.684 24.1019 0.015466 0.08403 -3.020363
2011-07-07 09:48:50 51°26.585 2°53.693 24.1187 0.015466 0.084026 -3.020363
2011-07-07 09:49:50 51°26.562 2°53.699 24.135 0.015466 0.084021 -3.020363
2011-07-07 09:50:50 51°26.549 2°53.699 24.1522 0.015466 0.084018 -3.020363
2011-07-07 09:51:50 51°26.542 2°53.693 24.1696 0.015466 0.084013 -3.020363
2011-07-07 09:52:49 51°26.538 2°53.687 24.1865 0.015466 0.084007 -3.020363
2011-07-07 09:53:50 51°26.49 2°53.657 24.2032 0.015466 0.084001 -3.020363
2011-07-07 09:54:50 51°26.393 2°53.508 24.2181 0.015466 0.083998 -3.020363
2011-07-07 09:55:50 51°26.259 2°53.333 24.2347 0.015568 0.084529 -3.020363
2011-07-07 09:56:50 51°26.099 2°53.107 24.2512 0.015568 0.084522 -3.020363
2011-07-07 09:57:49 51°25.938 2°52.865 24.2667 0.015568 0.084517 -3.020363
2011-07-07 09:58:49 51°25.796 2°52.581 24.2813 0.015568 0.084515 -3.020363
2011-07-07 09:59:49 51°25.653 2°52.301 24.298 0.015568 0.08451 -3.020363
2011-07-07 10:00:49 51°25.502 2°52.031 24.3113 0.015568 0.084505 -3.020363
2011-07-07 10:01:49 51°25.356 2°51.753 24.3275 0.015568 0.0845 -3.020363
2011-07-07 10:02:50 51°25.214 2°51.46 24.3412 0.015568 0.084495 -3.020363
2011-07-07 10:03:49 51°25.072 2°51.184 24.3586 0.015568 0.08449 -3.020363
2011-07-07 10:04:50 51°24.921 2°50.902 24.371 0.015671 0.085022 -3.020363
2011-07-07 10:05:49 51°24.783 2°50.62 24.3842 0.015671 0.085016 -3.020363
2011-07-07 10:06:50 51°24.631 2°50.34 24.3995 0.015671 0.085012 -3.020363
2011-07-07 10:07:50 51°24.491 2°50.054 24.413 0.015671 0.085007 -3.020363
2011-07-07 10:08:49 51°24.352 2°49.777 24.4269 0.015671 0.085002 -3.020363
2011-07-07 10:09:49 51°24.202 2°49.503 24.4433 0.015671 0.084997 -3.020363
2011-07-07 10:10:50 51°24.059 2°49.212 24.4561 0.015671 0.084992 -3.020363
2011-07-07 10:11:49 51°23.912 2°48.944 24.4701 0.015671 0.084987 -3.020363
2011-07-07 10:12:50 51°23.77 2°48.653 24.4835 0.015671 0.084982 -3.020363
2011-07-07 10:13:49 51°23.622 2°48.386 24.4973 0.015671 0.084976 -3.020363
2011-07-07 10:14:50 51°23.477 2°48.101 23.9944 0.015671 0.084974 -3.020363
2011-07-07 10:15:49 51°23.336 2°47.826 24.1119 0.015671 0.084974 -3.020363
2011-07-07 10:16:50 51°23.186 2°47.547 24.1075 0.015671 0.084968 -3.020363
2011-07-07 10:17:49 51°23.041 2°47.28 24.0825 0.015671 0.084966 -3.020363
2011-07-07 10:18:50 51°22.85 2°47.089 24.1534 0.015671 0.084958 -3.020363
2011-07-07 10:19:49 51°22.649 2°46.953 24.2233 0.015774 0.085487 -3.020363
2011-07-07 10:20:50 51°22.44 2°46.809 24.2025 0.015671 0.084947 -3.020363
2011-07-07 10:21:49 51°22.241 2°46.661 24.2004 0.015774 0.085474 -3.020363
2011-07-07 10:22:50 51°22.054 2°46.449 24.2839 0.015774 0.085468 -3.020363
2011-07-07 10:23:50 51°21.906 2°46.175 24.2193 0.015774 0.085463 -3.020363
2011-07-07 10:24:49 51°21.783 2°45.872 24.2778 0.015774 0.085457 -3.020363
2011-07-07 10:25:50 51°21.652 2°45.563 24.2544 0.015774 0.085452 -3.020363
2011-07-07 10:26:49 51°21.533 2°45.256 24.2738 0.015774 0.085445 -3.020363
2011-07-07 10:27:50 51°21.414 2°44.934 24.265 0.015774 0.08544 -3.020363
2011-07-07 10:28:50 51°21.287 2°44.627 24.2857 0.015774 0.085434 -3.020363
2011-07-07 10:29:49 51°21.172 2°44.315 24.2694 0.015774 0.085429 -3.020363
2011-07-07 10:30:50 51°21.05 2°44 24.2947 0.015774 0.085423 -3.020363
2011-07-07 10:31:49 51°20.934 2°43.691 24.316 0.015774 0.085418 -3.020363
2011-07-07 10:32:50 51°20.812 2°43.373 24.3215 0.015774 0.085412 -3.020363
2011-07-07 10:33:50 51°20.686 2°43.067 24.3163 0.015774 0.085407 -3.020363
2011-07-07 10:34:49 51°20.565 2°42.757 24.3086 0.015774 0.0854 -3.020363
2011-07-07 10:35:49 51°20.445 2°42.439 24.2926 0.015774 0.085394 -3.020363
2011-07-07 10:36:49 51°20.278 2°42.198 24.3177 0.015774 0.08539 -3.020363
2011-07-07 10:37:49 51°20.068 2°42.173 24.3288 0.015774 0.085389 -3.020363
2011-07-07 10:38:49 51°19.884 2°42.316 24.3479 0.015774 0.085379 -3.020363
2011-07-07 10:39:50 51°19.725 2°42.525 24.3474 0.015774 0.085377 -3.020363
2011-07-07 10:40:49 51°19.592 2°42.76 24.3767 0.015774 0.085365 -3.020363
2011-07-07 10:41:49 51°19.448 2°42.986 24.3847 0.015774 0.085353 -3.020363
2011-07-07 10:42:49 51°19.29 2°43.191 24.3732 0.015774 0.085349 -3.020363
2011-07-07 10:43:49 51°19.142 2°43.41 24.3719 0.015774 0.085345 -3.020363
2011-07-07 10:44:49 51°19.031 2°43.678 24.3599 0.015774 0.085344 -3.020363
2011-07-07 10:45:49 51°18.929 2°43.949 24.3687 0.015774 0.085337 -3.020363
2011-07-07 10:46:49 51°18.818 2°44.219 24.3932 0.015774 0.085329 -3.020363
2011-07-07 10:47:49 51°18.701 2°44.475 24.3785 0.015774 0.085323 -3.020363
2011-07-07 10:48:50 51°18.579 2°44.726 24.421 0.015774 0.085314 -3.020363
2011-07-07 10:49:50 51°18.446 2°44.964 24.4076 0.015774 0.085308 -3.020363
2011-07-07 10:50:50 51°18.293 2°45.18 24.4263 0.015774 0.0853 -3.020363
2011-07-07 10:51:49 51°18.138 2°45.392 24.4096 0.015774 0.085293 -3.020363
2011-07-07 10:52:50 51°17.984 2°45.622 24.4228 0.015774 0.085284 -3.020363
2011-07-07 10:53:49 51°17.85 2°45.833 24.4276 0.015774 0.085278 -3.020363
2011-07-07 10:54:50 51°17.792 2°45.949 24.4187 0.015774 0.085273 -3.020363
2011-07-07 10:55:50 51°17.825 2°46.009 24.419 0.015774 0.085264 -3.020363
2011-07-07 10:56:50 51°17.918 2°46.1 24.4261 0.015774 0.085258 -3.020363
2011-07-07 10:57:50 51°17.976 2°46.097 24.421 0.015774 0.085252 -3.020363
2011-07-07 10:58:50 51°17.997 2°46.061 24.4236 0.015774 0.085243 -3.020363
2011-07-07 10:59:50 51°17.996 2°46.027 24.4352 0.015774 0.085234 -3.020363
2011-07-07 11:00:50 51°17.988 2°46.001 24.4464 0.015774 0.085225 -3.020363
2011-07-07 11:01:50 51°17.978 2°45.979 24.4401 0.015774 0.085219 -3.020363
2011-07-07 11:02:49 51°17.968 2°45.965 24.4556 0.015774 0.085213 -3.020363
2011-07-07 11:03:49 51°17.955 2°45.953 24.4523 0.015774 0.085207 -3.020363
2011-07-07 11:04:50 51°17.94 2°45.938 24.4601 0.015774 0.085202 -3.020363
2011-07-07 11:05:50 51°17.927 2°45.923 24.469 0.015774 0.085196 -3.020363
2011-07-07 11:06:50 51°17.914 2°45.909 24.5425 0.015774 0.085169 -3.020363
2011-07-07 11:07:49 51°17.902 2°45.895 18.716 4.735006 34.17602 -3.020363
2011-07-07 11:08:50 51°17.89 2°45.881 18.6893 4.59369 34.197755 -3.020363
2011-07-07 11:09:50 51°17.878 2°45.868 18.6699 4.583212 34.177129 -3.020363
2011-07-07 11:10:50 51°17.865 2°45.853 18.6825 4.586428 34.226772 -3.020363
2011-07-07 11:11:49 51°17.853 2°45.84 18.6819 4.585287 34.215928 -3.020363
2011-07-07 11:12:50 51°17.841 2°45.826 18.682 4.58674 34.233281 -3.020363
2011-07-07 11:13:49 51°17.829 2°45.812 18.6761 4.587881 34.247386 -3.020363
2011-07-07 11:14:49 51°17.818 2°45.797 18.6723 4.59255 34.292964 -3.020363
2011-07-07 11:15:50 51°17.807 2°45.783 18.6787 4.592343 34.292533 -3.020363
2011-07-07 11:16:50 51°17.796 2°45.769 18.6677 4.590475 34.276255 -3.020363
2011-07-07 11:17:50 51°17.784 2°45.753 18.6616 4.591928 34.295588 -3.020363
2011-07-07 11:18:49 51°17.772 2°45.737 18.6613 4.594833 34.322515 -3.020363
2011-07-07 11:19:50 51°17.759 2°45.722 18.6543 4.594937 34.326651 -3.020363
2011-07-07 11:20:50 51°17.746 2°45.708 18.6556 4.591409 34.301696 -3.020363
2011-07-07 11:21:50 51°17.735 2°45.694 18.6502 4.595767 34.338177 -3.020363
2011-07-07 11:22:50 51°17.723 2°45.679 18.6515 4.596805 34.352098 -3.020363
2011-07-07 11:23:49 51°17.712 2°45.665 18.6623 4.594937 34.331881 -3.020363
2011-07-07 11:24:50 51°17.7 2°45.65 18.6588 4.596182 34.337074 -3.020363
2011-07-07 11:25:50 51°17.687 2°45.635 18.6594 4.596182 34.340997 -3.020363
2011-07-07 11:26:50 51°17.675 2°45.62 18.6335 4.59805 34.359252 -3.020363
2011-07-07 11:27:50 51°17.662 2°45.604 18.6521 4.599503 34.384514 -3.020363
2011-07-07 11:28:50 51°17.651 2°45.581 18.6337 4.599814 34.37795 -3.020363
2011-07-07 11:29:49 51°17.714 2°45.475 18.6367 4.601785 34.403637 -3.020363
2011-07-07 11:30:49 51°17.861 2°45.351 18.6076 4.595975 34.347764 -3.020363
2011-07-07 11:31:50 51°18.04 2°45.27 18.5651 4.587986 34.330583 -3.020363
2011-07-07 11:32:50 51°18.225 2°45.216 18.5919 4.584355 34.319788 -3.020363
2011-07-07 11:33:50 51°18.358 2°45.202 18.615 4.575121 34.224703 -3.020363
2011-07-07 11:34:50 51°18.394 2°45.243 18.6337 4.56267 34.10152 -3.020363
2011-07-07 11:35:49 51°18.398 2°45.279 18.649 4.560491 34.074185 -3.020363
2011-07-07 11:36:49 51°18.393 2°45.312 18.6459 4.56018 34.064437 -3.020363
2011-07-07 11:37:50 51°18.381 2°45.342 18.6523 4.56101 34.067486 -3.020363
2011-07-07 11:38:49 51°18.363 2°45.368 18.6354 4.56184 34.075729 -3.020363
2011-07-07 11:39:50 51°18.34 2°45.393 18.6262 4.559454 34.063554 -3.020363
2011-07-07 11:40:50 51°18.312 2°45.413 18.6176 4.559454 34.071997 -3.020363
2011-07-07 11:41:50 51°18.282 2°45.431 18.6064 4.56101 34.098678 -3.020363
2011-07-07 11:42:49 51°18.252 2°45.448 18.5751 4.561218 34.099765 -3.020363
2011-07-07 11:43:49 51°18.225 2°45.468 18.5695 4.562671 34.131462 -3.020363
2011-07-07 11:44:50 51°18.198 2°45.489 18.5706 4.564019 34.141461 -3.020363
2011-07-07 11:45:50 51°18.172 2°45.51 18.5752 4.565991 34.155371 -3.020363
2011-07-07 11:46:50 51°18.146 2°45.531 18.5889 4.565264 34.142118 -3.020363
2011-07-07 11:47:49 51°18.122 2°45.552 18.586 4.562359 34.110623 -3.020363
2011-07-07 11:48:49 51°18.099 2°45.575 18.6014 4.566717 34.148422 -3.020363
2011-07-07 11:49:49 51°18.077 2°45.6 18.6107 4.567754 34.14734 -3.020363
2011-07-07 11:50:49 51°18.055 2°45.623 18.6284 4.566509 34.125851 -3.020363
2011-07-07 11:51:49 51°18.035 2°45.646 18.6487 4.57097 34.156037 -3.020363
2011-07-07 11:52:49 51°18.012 2°45.669 18.6527 4.562981 34.06256 -3.020363
2011-07-07 11:53:49 51°17.985 2°45.69 18.6801 4.571592 34.137175 -3.020363
2011-07-07 11:54:49 51°17.952 2°45.709 18.7116 4.569828 34.094506 -3.020363
2011-07-07 11:55:49 51°17.921 2°45.731 18.6873 4.566092 34.039982 -3.020363
2011-07-07 11:56:49 51°17.917 2°45.767 18.7093 4.584354 34.225699 -3.020363
2011-07-07 11:57:50 51°17.942 2°45.792 18.749 4.571487 34.082445 -3.020363
2011-07-07 11:58:49 51°17.987 2°45.842 18.7216 4.567648 34.032924 -3.020363
2011-07-07 11:59:49 51°18.056 2°45.984 18.6794 4.578232 34.149158 -3.020363
2011-07-07 12:00:49 51°18.105 2°46.115 18.7208 4.576468 34.141562 -3.020363
2011-07-07 12:01:50 51°18.192 2°46.332 18.6848 4.578335 34.153922 -3.020363
2011-07-07 12:02:49 51°18.289 2°46.575 18.7529 4.578543 34.156306 -3.020363
2011-07-07 12:03:49 51°18.379 2°46.83 18.761 4.579165 34.134245 -3.020363
2011-07-07 12:04:49 51°18.474 2°47.081 18.7093 4.578438 34.113274 -3.020363
2011-07-07 12:05:50 51°18.569 2°47.335 18.7026 4.587362 34.231974 -3.020363
2011-07-07 12:06:49 51°18.664 2°47.582 18.7123 4.585702 34.224606 -3.020363
2011-07-07 12:07:50 51°18.764 2°47.838 18.716 4.587362 34.233277 -3.020363
2011-07-07 12:08:49 51°18.867 2°48.082 18.6669 4.595559 34.312262 -3.020363
2011-07-07 12:09:49 51°18.966 2°48.34 18.6587 4.600333 34.38295 -3.020363
2011-07-07 12:10:49 51°19.07 2°48.592 18.6787 4.601889 34.39271 -3.020363
2011-07-07 12:11:49 51°19.172 2°48.842 18.7443 4.602096 34.379386 -3.020363
2011-07-07 12:12:49 51°19.273 2°49.091 18.7628 4.589022 34.21787 -3.020363
2011-07-07 12:13:49 51°19.376 2°49.337 18.7861 4.579268 34.121498 -3.020363
2011-07-07 12:14:49 51°19.475 2°49.587 18.7951 4.565988 33.993245 -3.020363
2011-07-07 12:15:50 51°19.575 2°49.842 18.8083 4.555612 33.902245 -3.020363
2011-07-07 12:16:49 51°19.675 2°50.083 18.803 4.547416 33.82368 -3.020363
2011-07-07 12:17:49 51°19.776 2°50.333 18.7998 4.53839 33.752356 -3.020363
2011-07-07 12:18:49 51°19.874 2°50.586 18.7922 4.527704 33.671055 -3.020363
2011-07-07 12:19:49 51°19.976 2°50.833 18.778 4.513596 33.559349 -3.020363
2011-07-07 12:20:49 51°20.071 2°51.084 18.7607 4.498346 33.446427 -3.020363
2011-07-07 12:21:49 51°20.166 2°51.335 18.7383 4.483512 33.337572 -3.020363
2011-07-07 12:22:49 51°20.273 2°51.579 18.7041 4.470442 33.244629 -3.020363
2011-07-07 12:23:49 51°20.373 2°51.828 18.6729 4.46038 33.182361 -3.020363
2011-07-07 12:24:49 51°20.469 2°52.08 18.6363 4.451771 33.13592 -3.020363
2011-07-07 12:25:49 51°20.571 2°52.331 18.5941 4.436317 33.038077 -3.020363
2011-07-07 12:26:50 51°20.674 2°52.583 18.5795 4.426982 32.990501 -3.020363
2011-07-07 12:27:49 51°20.769 2°52.832 18.5692 4.42107 32.953802 -3.020363
2011-07-07 12:28:49 51°20.865 2°53.082 18.5991 4.41578 32.910968 -3.020363
2011-07-07 12:29:50 51°20.964 2°53.337 18.6038 4.413913 32.879099 -3.020363
2011-07-07 12:30:49 51°21.07 2°53.575 18.615 4.411527 32.846078 -3.020363
2011-07-07 12:31:49 51°21.165 2°53.831 18.6167 4.410283 32.842602 -3.020363
2011-07-07 12:32:49 51°21.264 2°54.089 18.6482 4.408519 32.813534 -3.020363
2011-07-07 12:33:49 51°21.366 2°54.347 18.6604 4.411319 32.813712 -3.020363
2011-07-07 12:34:50 51°21.472 2°54.601 18.6906 4.410386 32.79284 -3.020363
2011-07-07 12:35:49 51°21.572 2°54.848 18.7274 4.4108 32.776334 -3.020363
2011-07-07 12:36:50 51°21.677 2°55.101 18.7895 4.414222 32.76491 -3.020363
2011-07-07 12:37:49 51°21.774 2°55.352 18.8293 4.417955 32.755485 -3.020363
2011-07-07 12:38:49 51°21.886 2°55.593 18.9053 4.42563 32.787428 -3.020363
2011-07-07 12:39:49 51°22.002 2°55.829 18.9038 4.429467 32.767113 -3.020363
2011-07-07 12:40:50 51°22.12 2°56.069 18.8587 4.424074 32.734874 -3.020363
2011-07-07 12:41:49 51°22.237 2°56.3 18.8331 4.414221 32.680553 -3.020363
2011-07-07 12:42:49 51°22.323 2°56.459 18.8544 4.408101 32.63917 -3.020363
2011-07-07 12:43:49 51°22.367 2°56.554 18.9521 4.402915 32.56296 -3.020363
2011-07-07 12:44:49 51°22.413 2°56.546 18.9684 4.404884 32.515329 -3.020363
2011-07-07 12:45:49 51°22.42 2°56.505 18.8971 4.401566 32.497751 -3.020363
2011-07-07 12:46:49 51°22.413 2°56.475 18.9223 4.39638 32.477016 -3.020363
2011-07-07 12:47:49 51°22.402 2°56.453 18.9492 4.397106 32.470135 -3.020363
2011-07-07 12:48:49 51°22.389 2°56.435 18.9069 4.399699 32.480504 -3.020363
2011-07-07 12:49:49 51°22.371 2°56.416 18.9037 4.396588 32.481183 -3.020363
2011-07-07 12:50:49 51°22.355 2°56.396 18.9466 4.397002 32.479088 -3.020363
2011-07-07 12:51:49 51°22.343 2°56.378 18.9425 4.398558 32.469864 -3.020363
2011-07-07 12:52:49 51°22.333 2°56.36 18.9471 4.396691 32.455072 -3.020363
2011-07-07 12:53:49 51°22.325 2°56.339 18.9495 4.396172 32.449568 -3.020363
2011-07-07 12:54:49 51°22.318 2°56.318 18.9562 4.399284 32.472179 -3.020363
2011-07-07 12:55:49 51°22.312 2°56.297 18.9445 4.39835 32.461416 -3.020363
2011-07-07 12:56:49 51°22.305 2°56.275 18.9614 4.397624 32.458487 -3.020363
2011-07-07 12:57:49 51°22.298 2°56.253 18.9382 4.399284 32.461769 -3.020363
2011-07-07 12:58:49 51°22.292 2°56.232 18.9051 4.394928 32.452157 -3.020363
2011-07-07 12:59:49 51°22.284 2°56.212 18.8991 4.396276 32.473707 -3.020363
2011-07-07 13:00:49 51°22.278 2°56.192 18.917 4.395447 32.472988 -3.020363
2011-07-07 13:01:49 51°22.27 2°56.171 18.9088 4.396173 32.472237 -3.020363
2011-07-07 13:02:49 51°22.263 2°56.153 18.9161 4.395965 32.469298 -3.020363
2011-07-07 13:03:49 51°22.254 2°56.133 18.921 4.39638 32.47395 -3.020363
2011-07-07 13:04:49 51°22.247 2°56.112 18.9126 4.396691 32.472227 -3.020363
2011-07-07 13:05:49 51°22.24 2°56.092 18.8919 4.395654 32.466116 -3.020363
2011-07-07 13:06:49 51°22.233 2°56.071 18.8894 4.395032 32.486743 -3.020363
2011-07-07 13:07:49 51°22.227 2°56.052 18.8931 4.394825 32.478891 -3.020363
2011-07-07 13:08:49 51°22.221 2°56.035 18.9072 4.395239 32.471888 -3.020363
2011-07-07 13:09:49 51°22.212 2°56.018 18.9078 4.395862 32.474574 -3.020363
2011-07-07 13:10:49 51°22.203 2°56.002 18.8513 4.395758 32.477398 -3.020363
2011-07-07 13:11:49 51°22.192 2°55.986 18.8395 4.392129 32.480552 -3.020363
2011-07-07 13:12:49 51°22.181 2°55.972 18.83 4.391092 32.481193 -3.020363
2011-07-07 13:13:49 51°22.17 2°55.957 18.8854 4.390469 32.478505 -3.020363
2011-07-07 13:14:49 51°22.159 2°55.943 18.8785 4.393477 32.473889 -3.020363
2011-07-07 13:15:49 51°22.16 2°55.929 18.8318 4.393373 32.478556 -3.020363
2011-07-07 13:16:49 51°22.176 2°55.941 18.7804 4.389951 32.487125 -3.020363
2011-07-07 13:17:49 51°22.179 2°55.97 18.7886 4.385284 32.483573 -3.020363
2011-07-07 13:18:49 51°22.181 2°56.003 18.7751 4.385077 32.476316 -3.020363
2011-07-07 13:19:49 51°22.181 2°56.037 18.7784 4.38404 32.470807 -3.020363
2011-07-07 13:20:49 51°22.178 2°56.075 18.8084 4.384351 32.471536 -3.020363
2011-07-07 13:21:49 51°22.172 2°56.114 18.8145 4.385699 32.470392 -3.020363
2011-07-07 13:22:49 51°22.165 2°56.155 18.853 4.387151 32.471338 -3.020363
2011-07-07 13:23:49 51°22.154 2°56.197 18.8249 4.390366 32.477648 -3.020363
2011-07-07 13:24:49 51°22.141 2°56.24 18.8131 4.389847 32.489342 -3.020363
2011-07-07 13:25:49 51°22.123 2°56.283 18.8261 4.390055 32.494749 -3.020363
2011-07-07 13:26:49 51°22.103 2°56.324 18.8273 4.391196 32.501112 -3.020363
2011-07-07 13:27:49 51°22.078 2°56.365 18.8329 4.391611 32.505159 -3.020363
2011-07-07 13:28:50 51°22.047 2°56.402 18.8482 4.392855 32.505611 -3.020363
2011-07-07 13:29:49 51°22.014 2°56.437 18.86 4.394825 32.505917 -3.020363
2011-07-07 13:30:49 51°21.98 2°56.473 18.839 4.393684 32.494641 -3.020363
2011-07-07 13:31:49 51°21.942 2°56.506 18.8208 4.390469 32.485266 -3.020363
2011-07-07 13:32:49 51°21.901 2°56.534 18.8159 4.389018 32.481863 -3.020363
2011-07-07 13:33:49 51°21.856 2°56.556 18.8192 4.38881 32.481377 -3.020363
2011-07-07 13:34:49 51°21.807 2°56.568 18.8341 4.389121 32.482721 -3.020363
2011-07-07 13:35:49 51°21.756 2°56.569 18.864 4.390677 32.481449 -3.020363
2011-07-07 13:36:49 51°21.703 2°56.559 18.8906 4.393373 32.483469 -3.020363
2011-07-07 13:37:49 51°21.65 2°56.538 18.9111 4.395862 32.481322 -3.020363
2011-07-07 13:38:49 51°21.598 2°56.507 18.9129 4.397728 32.48631 -3.020363
2011-07-07 13:39:49 51°21.548 2°56.469 18.9164 4.39918 32.494619 -3.020363
2011-07-07 13:40:49 51°21.496 2°56.426 18.9307 4.401047 32.506352 -3.020363
2011-07-07 13:41:49 51°21.383 2°56.339 18.9351 4.404677 32.527729 -3.020363
2011-07-07 13:42:49 51°21.206 2°56.204 18.9686 4.414634 32.598256 -3.020363
2011-07-07 13:43:49 51°21.007 2°56.031 18.9421 4.433719 32.744751 -3.020363
2011-07-07 13:44:50 51°20.8 2°55.871 18.9491 4.439113 32.801674 -3.020363
2011-07-07 13:45:49 51°20.605 2°55.701 19.0109 4.445751 32.828046 -3.020363
2011-07-07 13:46:49 51°20.413 2°55.512 18.9989 4.454567 32.876084 -3.020363
2011-07-07 13:47:49 51°20.221 2°55.323 18.9831 4.455086 32.890896 -3.020363
2011-07-07 13:48:49 51°20.028 2°55.137 18.9923 4.462036 32.961957 -3.020363
2011-07-07 13:49:50 51°19.83 2°54.954 18.989 4.464421 32.970485 -3.020363
2011-07-07 13:50:50 51°19.64 2°54.761 19.0002 4.47023 33.020346 -3.020363
2011-07-07 13:51:50 51°19.446 2°54.579 19.0067 4.478218 33.078879 -3.020363
2011-07-07 13:52:49 51°19.257 2°54.397 19.0022 4.489421 33.168359 -3.020363
2011-07-07 13:53:50 51°19.059 2°54.215 19.0079 4.496164 33.222856 -3.020363
2011-07-07 13:54:50 51°18.867 2°54.029 19.0124 4.5055 33.298814 -3.020363
2011-07-07 13:55:50 51°18.674 2°53.847 19.0085 4.512866 33.352203 -3.020363
2011-07-07 13:56:49 51°18.481 2°53.676 19.0016 4.527909 33.482971 -3.020363
2011-07-07 13:57:50 51°18.288 2°53.479 18.9895 4.543159 33.611783 -3.020363
2011-07-07 13:58:49 51°18.1 2°53.292 19.0036 4.554883 33.722259 -3.020363
2011-07-07 13:59:50 51°17.899 2°53.124 18.9792 4.552911 33.680519 -3.020363
2011-07-07 14:00:49 51°17.711 2°52.95 18.9825 4.590989 34.026924 -3.020363
2011-07-07 14:01:49 51°17.514 2°52.789 18.9818 4.598771 34.089616 -3.020363
2011-07-07 14:02:49 51°17.325 2°52.606 18.9737 4.604374 34.138084 -3.020363
2011-07-07 14:03:49 51°17.119 2°52.593 18.9725 4.606761 34.175316 -3.020363
2011-07-07 14:04:50 51°16.928 2°52.765 18.9805 4.606139 34.170786 -3.020363
2011-07-07 14:05:49 51°16.749 2°52.952 18.9925 4.604997 34.154208 -3.020363
2011-07-07 14:06:50 51°16.556 2°53.125 19.0148 4.60344 34.129039 -3.020363
2011-07-07 14:07:49 51°16.355 2°53.236 19.0388 4.604063 34.121338 -3.020363
2011-07-07 14:08:50 51°16.146 2°53.334 19.1173 4.598978 34.045111 -3.020363
2011-07-07 14:09:50 51°15.945 2°53.441 19.1226 4.572312 33.773853 -3.020363
2011-07-07 14:10:49 51°15.747 2°53.548 19.1025 4.537244 33.488359 -3.020363
2011-07-07 14:11:50 51°15.563 2°53.727 19.0836 4.521579 33.375268 -3.020363
2011-07-07 14:12:50 51°15.395 2°53.935 19.1458 4.521994 33.376186 -3.020363
2011-07-07 14:13:50 51°15.226 2°54.141 19.1528 4.52884 33.390702 -3.020363
2011-07-07 14:14:49 51°15.06 2°54.341 19.1343 4.523446 33.346186 -3.020363
2011-07-07 14:15:50 51°14.886 2°54.543 19.1185 4.52023 33.335922 -3.020363
2011-07-07 14:16:50 51°14.724 2°54.762 19.1281 4.523446 33.369365 -3.020363
2011-07-07 14:17:50 51°14.563 2°54.978 19.14 4.540668 33.505315 -3.020363
2011-07-07 14:18:49 51°14.39 2°55.159 19.3534 0.097306 0.543303 -3.020363
2011-07-07 14:19:50 51°14.259 2°55.3 19.3979 0.074891 0.414176 -3.020363
2011-07-07 14:20:50 51°14.153 2°55.397 19.4413 0.06317 0.347337 -3.020363
2011-07-07 14:21:50 51°14.044 2°55.476 19.5298 0.056899 0.311804 -3.020363
2011-07-07 14:22:50 51°13.919 2°55.565 19.6109 0.052889 0.289162 -3.020363
2011-07-07 14:23:49 51°13.829 2°55.632 19.7196 0.050113 0.273518 -3.020363
2011-07-07 14:24:49 51°13.759 2°55.714 19.812 0.048056 0.261944 -3.020363
2011-07-07 14:25:49 51°13.704 2°55.814 19.9015 0.046206 0.251544 -3.020363
2011-07-07 14:26:50 51°13.66 2°55.919 19.9962 0.044664 0.242881 -3.020363
2011-07-07 14:27:50 51°13.639 2°56 20.1034 0.04343 0.23595 -3.020363